sat.trackr.live / text

‹ back to catalog

ONEWEB-0310

NORAD 49096 · 2021-075X

PAYLOAD ACTIVE UNKNOWN

§ Identity

Operator
Country
UK
Launch date
2021-08-21
Launch site
TYMSC
Launch vehicle
Mass (kg)
RCS (m²)

Purposes: comms

External: N2YO · Heavens-Above · Gunter

§ Orbital elements

Epoch: 2026-09-15T15:40:11.590752Z

Period
109.72 min
Inclination
87.8980°
Eccentricity
0.0001889
Mean motion
13.12443478 rev/d
Perigee alt
1,212.3 km
Apogee alt
1,215.2 km
Semi-major
7,591.9 km
B*
1.0463e-3
RAAN
332.7162°
Arg perigee
98.8984°
Mean anomaly
261.2359°
Rev number
24,705

§ Raw data

ONEWEB-03101 49096U 21075X   26258.65291193  .00000389  00000+0  10463-2 0  99972 49096  87.8980 332.7162 0001889  98.8984 261.2359 13.12443478247059

JSON: /api/v1/satellites/49096 · /tle

For live sub-satellite position, see the globe view (requires WebGL).

§ Visibility from observer

Set your observer location to see the next 7 days of passes ≥ 10°. The values pass through the URL so the page stays shareable.

No JS? Fill the form by hand. The geolocation button needs JavaScript.